Location: UBC Liquid-Mirror Observatory
(49.2876°N, 122.5728°W)
Time: 21:23:26
(UTC-07:00)

KITSAT 1 - Visible Passes

Search period start: 19 October 2014 00:00
Search period end: 29 October 2014 00:00
Orbit: 1313 x 1317 km, 66.1° (Epoch: 19 October)

Date Brightness Start Highest point End Pass type
(mag) Time Alt. Az. Time Alt. Az. Time Alt. Az.
19 Oct 11.3 19:55:17 10° NW 20:02:10 29° NNE 20:05:59 21° ENE visible
19 Oct 10.5 21:51:06 10° NW 21:57:57 59° N 21:57:57 59° N visible
19 Oct 12.0 23:46:58 10° NW 23:49:55 23° WNW 23:49:55 23° WNW visible
20 Oct 11.1 20:11:37 10° NW 20:18:50 34° NNE 20:21:36 27° ENE visible
20 Oct 10.5 22:07:14 10° NW 22:13:35 60° NNW 22:13:35 60° NNW visible
21 Oct 12.2 00:03:32 10° NW 00:05:33 17° WNW 00:05:33 17° WNW visible
21 Oct 11.5 18:31:13 10° NW 18:37:34 24° N 18:43:55 10° ENE visible
21 Oct 10.7 20:27:50 10° NW 20:35:24 41° NE 20:37:16 36° ENE visible
21 Oct 10.8 22:23:23 10° NW 22:29:15 51° NW 22:29:15 51° NW visible
22 Oct 12.5 00:20:32 10° WNW 00:21:13 12° WNW 00:21:13 12° WNW visible
22 Oct 11.4 18:47:51 10° NW 18:54:23 26° NNE 19:00:55 10° ENE visible
22 Oct 10.4 20:44:00 10° NW 20:51:52 51° NE 20:52:58 48° ENE visible
22 Oct 11.2 22:39:37 10° NW 22:44:56 41° WNW 22:44:56 41° WNW visible
23 Oct 11.3 19:04:18 10° NW 19:11:09 29° NNE 19:16:43 14° ENE visible
23 Oct 10.1 21:00:08 10° NW 21:08:12 65° NE 21:08:42 64° ENE visible
23 Oct 11.5 22:55:58 10° NW 23:00:41 31° WNW 23:00:41 31° WNW visible
24 Oct 11.0 19:20:38 10° NW 19:27:50 33° NNE 19:32:29 20° ENE visible
24 Oct 10.0 21:16:16 10° NW 21:24:24 84° NE 21:24:28 84° ENE visible
24 Oct 11.9 23:12:32 10° NW 23:16:28 23° WNW 23:16:28 23° WNW visible
25 Oct 10.8 19:36:52 10° NW 19:44:25 40° NNE 19:48:19 26° E visible
25 Oct 10.2 21:32:25 10° NW 21:40:18 75° WSW 21:40:18 75° WSW visible
25 Oct 12.2 23:29:29 10° WNW 23:32:18 16° W 23:32:18 16° W visible
26 Oct 10.5 19:53:02 10° NW 20:00:53 50° NE 20:04:12 33° E visible
26 Oct 10.6 21:48:39 10° NW 21:56:12 55° WSW 21:56:12 55° WSW visible
26 Oct 12.5 23:47:40 10° WNW 23:48:12 11° W 23:48:12 11° W visible
27 Oct 10.2 20:09:10 10° NW 20:17:13 64° NE 20:20:10 41° ESE visible
27 Oct 11.1 22:04:59 10° NW 22:12:10 40° WSW 22:12:10 40° WSW visible
28 Oct 11.0 18:29:40 10° NW 18:36:50 33° NNE 18:43:58 10° E visible
28 Oct 10.1 20:25:18 10° NW 20:33:26 82° NE 20:36:13 46° SE visible
28 Oct 11.6 22:21:31 10° NW 22:28:02 28° WSW 22:28:13 28° WSW visible
